DELTA 1 DEB, 21512

Orbit data source: Space-Track

DELTA 1 DEB, 21512 is space debris in SSO originally from a launch on Thu, 12 Jun 1975 UTC launched from the Air Force Western Test Range (AFWTR). Debris objects in space refer to the collection of defunct objects orbiting the Earth. Examples of debris include non-operational satellites, rocket bodies, and fragments generated from explosions, collisions, or faulty payload assembly.

Loading next visibility...
Identifier
21512, 1975-052GH
Orbit
SSO
Country
Flag of USUS
Related business
Manufacturer
Unknown
Mission
Spacecraft
Bus & Motor
Unknown
Mass
Unknown
Launch date (UTC)
1975-06-12 (51 years ago)
Launch vehicle
Unknown
Launch site
Air Force Western Test Range (AFWTR)
Object type
Payload
Rocket body
Debris
Shape & HBR
Unknown shape, 0.2 m
Radar Cross Section
Small (<0.1 m²)

Expand to show TLE details & history
Last TLE update: 18 hours ago

TLE from 18 hours ago
0 DELTA 1 DEB
1 21512U 75052GH  25350.20196247  .00000143  00000-0  33882-3 0  9991
2 21512  99.9118 244.8002 0036333 279.5208 233.3002 13.40543452684294
Epoch: 2025-12-16T04:50Z
TLE epoch observation values (Epoch: 2025-12-16T04:50:49.557Z)
Latitude
27.10555°
Longitude
-87.89069°
Altitude
1,126.757 km
Speed
7.284 km/s
True Right ascension
04h 39m 37s
True Declination
26° 58' 23"
Sunlit
Object was in full shadow at epoch
Visualization orbit readout
Latitude
Unknown
Longitude
Unknown
Altitude
Unknown
Speed
Unknown
Apparent Right ascension
Unknown
Apparent Declination
Unknown
Sunlit
N/A
Visualization observer readout
Local Sidereal Time
21:34:44
Azimuth
Unknown
Elevation
Unknown
Doppler factor
Unknown
Orbital elements
Apogee altitude
1,131.767 km
Perigee altitude
1,077.393 km
Semi-major axis
7,482.717 km
Eccentricity
0.00363
Inclination
99.9118°
RAAN
244.8002°
Arg. of periapsis
279.5208°
True anomaly
232.96729°
Mean anomaly
233.3002°
Eccentric anomaly
233.13365°
Mean motion
3.35316 °/min
Orbital period
107.36 mins
BSTAR
0.00033882
Loading maneuver chart data...
Computing Atmospheric mass density...
Loading historical data...
Loading historical data...
Loading historical data...
Loading historical data...
Loading historical data...
Loading historical data...
Loading historical data...

Documentation

Showing up to 5 results
|